TimeMDT,TemperatureF,Dew PointF,Humidity,Sea Level PressureIn,VisibilityMPH,Wind Direction,Wind SpeedMPH,Gust SpeedMPH,PrecipitationIn,Events,Conditions,WindDirDegrees,DateUTC
12:53 AM,41.0,14.0,33,29.99,10.0,South,8.1,-,N/A,,Clear,180,2012-10-08 06:53:00
1:53 AM,42.1,10.0,27,29.97,10.0,South,9.2,-,N/A,,Clear,180,2012-10-08 07:53:00
2:53 AM,42.1,10.0,27,29.96,10.0,South,15.0,-,N/A,,Clear,190,2012-10-08 08:53:00
3:53 AM,39.0,10.0,30,29.95,10.0,South,10.4,-,N/A,,Clear,170,2012-10-08 09:53:00
4:53 AM,37.0,10.9,34,29.96,9.0,South,6.9,-,0.00,Snow,Light Snow,180,2012-10-08 10:53:00
5:53 AM,34.0,10.0,37,29.97,9.0,South,9.2,-,0.00,Snow,Light Snow,180,2012-10-08 11:53:00
6:53 AM,36.0,10.0,34,29.97,9.0,South,8.1,-,0.00,,Clear,190,2012-10-08 12:53:00
7:53 AM,39.0,10.0,30,29.99,10.0,South,8.1,-,N/A,,Clear,180,2012-10-08 13:53:00
8:53 AM,45.0,10.9,25,29.99,10.0,SSE,8.1,-,N/A,,Clear,160,2012-10-08 14:53:00
9:53 AM,51.1,15.1,24,30.00,10.0,East,3.5,-,N/A,,Clear,100,2012-10-08 15:53:00
10:53 AM,53.1,17.1,24,29.99,10.0,ENE,5.8,-,N/A,,Clear,70,2012-10-08 16:53:00
11:53 AM,55.9,17.1,22,29.97,10.0,NNE,4.6,-,N/A,,Clear,30,2012-10-08 17:53:00
12:53 PM,61.0,17.1,18,29.95,10.0,Calm,Calm,-,N/A,,Clear,0,2012-10-08 18:53:00
1:53 PM,64.0,18.0,17,29.91,10.0,Calm,Calm,-,N/A,,Clear,0,2012-10-08 19:53:00
2:53 PM,69.1,12.9,11,29.87,5.0,WSW,8.1,-,N/A,,Haze,250,2012-10-08 20:53:00
3:53 PM,69.1,19.0,15,29.86,10.0,WNW,10.4,-,N/A,,Clear,300,2012-10-08 21:53:00
4:53 PM,68.0,15.1,13,29.86,10.0,WNW,10.4,-,N/A,,Clear,300,2012-10-08 22:53:00
5:53 PM,66.0,12.9,13,29.86,10.0,WNW,10.4,-,N/A,,Clear,300,2012-10-08 23:53:00
6:53 PM,57.0,16.0,20,29.89,10.0,WSW,6.9,-,N/A,,Clear,250,2012-10-09 00:53:00
7:53 PM,52.0,12.9,21,29.90,10.0,SSW,9.2,-,N/A,,Clear,210,2012-10-09 01:53:00
8:53 PM,50.0,12.0,22,29.88,10.0,South,13.8,-,N/A,,Clear,190,2012-10-09 02:53:00
9:53 PM,51.1,10.0,19,29.88,10.0,South,15.0,-,N/A,,Clear,190,2012-10-09 03:53:00
10:53 PM,52.0,9.0,18,29.86,10.0,South,15.0,-,N/A,,Clear,190,2012-10-09 04:53:00
11:53 PM,53.1,8.1,16,29.87,10.0,South,13.8,-,N/A,,Clear,190,2012-10-09 05:53:00